Location: Potomac
(46.8816°N, 113.5795°W)
Time: 01:40:42
(UTC+00:00)

CUTE 1.7 + AOD 2 - Pass Details

Date: 01 July 2022
Orbit: 589 x 608 km, 97.7° (Epoch: 17 August)

Event Time Altitude Azimuth Distance (km) Brightness Sun altitude
Rises 10:09:44 0° 33° (NNE) 2,852 ? -12.1°
Reaches altitude 10° 10:13:17 10° 65° (ENE) 1,937 ? -11.8°
Maximum altitude 10:14:56 12° 88° (E) 1,801 ? -11.6°
Drops below altitude 10° 10:16:35 10° 111° (ESE) 1,926 ? -11.4°
Sets 10:20:04 0° 143° (SE) 2,816 ? -11.1°
